owner,sensor,date,latitude,longitude,vertical_datum,mass_concentration_of_oxygen_in_sea_water,qcFlag 
SCCF RECON,ioos:station:SCCF:11:1,2016-09-01T00:00:00Z,26.4679,-82.0631,1.74,6.68,1111122 
SCCF RECON,ioos:station:SCCF:11:1,2016-09-01T01:00:00Z,26.4679,-82.0631,1.822,6.28,1111122 
SCCF RECON,ioos:station:SCCF:11:1,2016-09-01T02:00:00Z,26.4679,-82.0631,2.064,6.03,1111122 
SCCF RECON,ioos:station:SCCF:11:1,2016-09-01T03:00:00Z,26.4679,-82.0631,2.164,5.6,1111122 
SCCF RECON,ioos:station:SCCF:11:1,2016-09-01T04:00:00Z,26.4679,-82.0631,2.18,5.54,1111122 
SCCF RECON,ioos:station:SCCF:11:1,2016-09-01T05:00:00Z,26.4679,-82.0631,2.24,5.56,1111122 
SCCF RECON,ioos:station:SCCF:11:1,2016-09-01T06:00:00Z,26.4679,-82.0631,2.28,5.66,1111122 
SCCF RECON,ioos:station:SCCF:11:1,2016-09-01T07:00:00Z,26.4679,-82.0631,2.26,5.78,1111122 
SCCF RECON,ioos:station:SCCF:11:1,2016-09-01T08:00:00Z,26.4679,-82.0631,2.22,5.7,1111122 
SCCF RECON,ioos:station:SCCF:11:1,2016-09-01T09:00:00Z,26.4679,-82.0631,2.103,5.53,1111122 
SCCF RECON,ioos:station:SCCF:11:1,2016-09-01T10:00:00Z,26.4679,-82.0631,2.0,5.48,1111122 
SCCF RECON,ioos:station:SCCF:11:1,2016-09-01T11:00:00Z,26.4679,-82.0631,1.96,4.99,1111122 
SCCF RECON,ioos:station:SCCF:11:1,2016-09-01T12:00:00Z,26.4679,-82.0631,1.93,5.04,1111122 
SCCF RECON,ioos:station:SCCF:11:1,2016-09-01T13:00:00Z,26.4679,-82.0631,2.03,5.47,1111122 
SCCF RECON,ioos:station:SCCF:11:1,2016-09-01T14:00:00Z,26.4679,-82.0631,2.176,5.67,1111122 
SCCF RECON,ioos:station:SCCF:11:1,2016-09-01T15:00:00Z,26.4679,-82.0631,2.311,5.82,1111122 
SCCF RECON,ioos:station:SCCF:11:1,2016-09-01T16:00:00Z,26.4679,-82.0631,2.42,5.81,1111122 
SCCF RECON,ioos:station:SCCF:11:1,2016-09-01T17:00:00Z,26.4679,-82.0631,2.48,5.96,1111122 
SCCF RECON,ioos:station:SCCF:11:1,2016-09-01T18:00:00Z,26.4679,-82.0631,2.523,5.98,1111122 
SCCF RECON,ioos:station:SCCF:11:1,2016-09-01T19:00:00Z,26.4679,-82.0631,2.524,6.06,1111122 
SCCF RECON,ioos:station:SCCF:11:1,2016-09-01T20:00:00Z,26.4679,-82.0631,2.461,6.0,1111122 
SCCF RECON,ioos:station:SCCF:11:1,2016-09-01T21:00:00Z,26.4679,-82.0631,2.34,6.74,1111122 
SCCF RECON,ioos:station:SCCF:11:1,2016-09-01T22:00:00Z,26.4679,-82.0631,2.228,6.55,1111122 
SCCF RECON,ioos:station:SCCF:11:1,2016-09-01T23:00:00Z,26.4679,-82.0631,2.1,6.33,1111122 
SCCF RECON,ioos:station:SCCF:11:1,2016-09-02T00:00:00Z,26.4679,-82.0631,1.939,6.28,1111122 
SCCF RECON,ioos:station:SCCF:11:1,2016-09-02T01:00:00Z,26.4679,-82.0631,1.96,5.8,1111122 
SCCF RECON,ioos:station:SCCF:11:1,2016-09-02T02:00:00Z,26.4679,-82.0631,2.07,5.75,1111122 
SCCF RECON,ioos:station:SCCF:11:1,2016-09-02T03:00:00Z,26.4679,-82.0631,2.23,5.53,1111122 
SCCF RECON,ioos:station:SCCF:11:1,2016-09-02T04:00:00Z,26.4679,-82.0631,2.31,5.62,1111122 
SCCF RECON,ioos:station:SCCF:11:1,2016-09-02T05:00:00Z,26.4679,-82.0631,2.39,5.58,1111122 
SCCF RECON,ioos:station:SCCF:11:1,2016-09-02T06:00:00Z,26.4679,-82.0631,2.41,5.67,1111122 
SCCF RECON,ioos:station:SCCF:11:1,2016-09-02T07:00:00Z,26.4679,-82.0631,2.421,5.7,1111122 
SCCF RECON,ioos:station:SCCF:11:1,2016-09-02T08:00:00Z,26.4679,-82.0631,2.392,5.47,1111122 
SCCF RECON,ioos:station:SCCF:11:1,2016-09-02T09:00:00Z,26.4679,-82.0631,2.27,5.91,1111122 
SCCF RECON,ioos:station:SCCF:11:1,2016-09-02T10:00:00Z,26.4679,-82.0631,2.15,5.57,1111122 
SCCF RECON,ioos:station:SCCF:11:1,2016-09-02T11:00:00Z,26.4679,-82.0631,2.079,5.37,1111122 
SCCF RECON,ioos:station:SCCF:11:1,2016-09-02T12:00:00Z,26.4679,-82.0631,2.03,5.24,1111122 
SCCF RECON,ioos:station:SCCF:11:1,2016-09-02T13:00:00Z,26.4679,-82.0631,2.03,5.12,1111122 
SCCF RECON,ioos:station:SCCF:11:1,2016-09-02T14:00:00Z,26.4679,-82.0631,2.12,5.57,1111122 
SCCF RECON,ioos:station:SCCF:11:1,2016-09-02T15:00:00Z,26.4679,-82.0631,2.244,5.79,1111122 
SCCF RECON,ioos:station:SCCF:11:1,2016-09-02T16:00:00Z,26.4679,-82.0631,2.419,5.98,1111122 
SCCF RECON,ioos:station:SCCF:11:1,2016-09-02T17:00:00Z,26.4679,-82.0631,2.451,6.1,1111122 
SCCF RECON,ioos:station:SCCF:11:1,2016-09-02T18:00:00Z,26.4679,-82.0631,2.341,6.29,1111122 
SCCF RECON,ioos:station:SCCF:11:1,2016-09-02T19:00:00Z,26.4679,-82.0631,2.321,6.47,1111122 
SCCF RECON,ioos:station:SCCF:11:1,2016-09-02T20:00:00Z,26.4679,-82.0631,2.224,6.17,1111122 
SCCF RECON,ioos:station:SCCF:11:1,2016-09-02T21:00:00Z,26.4679,-82.0631,2.1,6.51,1111122 
SCCF RECON,ioos:station:SCCF:11:1,2016-09-02T22:00:00Z,26.4679,-82.0631,1.95,6.29,1111122 
SCCF RECON,ioos:station:SCCF:11:1,2016-09-02T23:00:00Z,26.4679,-82.0631,1.84,6.25,1111122 
SCCF RECON,ioos:station:SCCF:11:1,2016-09-03T00:00:00Z,26.4679,-82.0631,1.77,5.91,1111122 
SCCF RECON,ioos:station:SCCF:11:1,2016-09-03T01:00:00Z,26.4679,-82.0631,1.7,5.73,1111122 
SCCF RECON,ioos:station:SCCF:11:1,2016-09-03T02:00:00Z,26.4679,-82.0631,1.73,5.97,1111122 
SCCF RECON,ioos:station:SCCF:11:1,2016-09-03T03:00:00Z,26.4679,-82.0631,1.871,5.97,1111122 
SCCF RECON,ioos:station:SCCF:11:1,2016-09-03T04:00:00Z,26.4679,-82.0631,2.05,6.1,1111122 
SCCF RECON,ioos:station:SCCF:11:1,2016-09-03T05:00:00Z,26.4679,-82.0631,2.144,6.0,1111122 
SCCF RECON,ioos:station:SCCF:11:1,2016-09-03T06:00:00Z,26.4679,-82.0631,2.257,5.63,1111122 
SCCF RECON,ioos:station:SCCF:11:1,2016-09-03T07:00:00Z,26.4679,-82.0631,2.27,5.85,1111122 
SCCF RECON,ioos:station:SCCF:11:1,2016-09-03T08:00:00Z,26.4679,-82.0631,2.14,5.77,1111122 
SCCF RECON,ioos:station:SCCF:11:1,2016-09-03T09:00:00Z,26.4679,-82.0631,2.0,5.44,1111122 
SCCF RECON,ioos:station:SCCF:11:1,2016-09-03T10:00:00Z,26.4679,-82.0631,1.91,5.3,1111122 
SCCF RECON,ioos:station:SCCF:11:1,2016-09-03T11:00:00Z,26.4679,-82.0631,1.81,4.95,1111122 
SCCF RECON,ioos:station:SCCF:11:1,2016-09-03T12:00:00Z,26.4679,-82.0631,1.71,4.34,1111122 
SCCF RECON,ioos:station:SCCF:11:1,2016-09-03T13:00:00Z,26.4679,-82.0631,1.66,4.8,1111122 
SCCF RECON,ioos:station:SCCF:11:1,2016-09-03T14:00:00Z,26.4679,-82.0631,1.72,4.95,1111122 
SCCF RECON,ioos:station:SCCF:11:1,2016-09-03T15:00:00Z,26.4679,-82.0631,1.89,5.31,1111122 
SCCF RECON,ioos:station:SCCF:11:1,2016-09-03T16:00:00Z,26.4679,-82.0631,2.062,5.87,1111122 
SCCF RECON,ioos:station:SCCF:11:1,2016-09-03T17:00:00Z,26.4679,-82.0631,2.16,6.11,1111122 
SCCF RECON,ioos:station:SCCF:11:1,2016-09-03T18:00:00Z,26.4679,-82.0631,2.24,5.67,1111122 
SCCF RECON,ioos:station:SCCF:11:1,2016-09-03T19:00:00Z,26.4679,-82.0631,2.284,5.45,1111122 
SCCF RECON,ioos:station:SCCF:11:1,2016-09-03T20:00:00Z,26.4679,-82.0631,2.24,5.44,1111122 
SCCF RECON,ioos:station:SCCF:11:1,2016-09-03T21:00:00Z,26.4679,-82.0631,2.14,7.44,1111122 
SCCF RECON,ioos:station:SCCF:11:1,2016-09-03T22:00:00Z,26.4679,-82.0631,2.01,7.67,1111122 
SCCF RECON,ioos:station:SCCF:11:1,2016-09-03T23:00:00Z,26.4679,-82.0631,1.91,7.95,1111122 
SCCF RECON,ioos:station:SCCF:11:1,2016-09-04T00:00:00Z,26.4679,-82.0631,1.8,7.85,1111122 
SCCF RECON,ioos:station:SCCF:11:1,2016-09-04T01:00:00Z,26.4679,-82.0631,1.74,7.54,1111122 
SCCF RECON,ioos:station:SCCF:11:1,2016-09-04T02:00:00Z,26.4679,-82.0631,1.76,7.52,1111122 
SCCF RECON,ioos:station:SCCF:11:1,2016-09-04T03:00:00Z,26.4679,-82.0631,1.86,7.53,1111122 
SCCF RECON,ioos:station:SCCF:11:1,2016-09-04T04:00:00Z,26.4679,-82.0631,2.0,6.18,1111122 
SCCF RECON,ioos:station:SCCF:11:1,2016-09-04T05:00:00Z,26.4679,-82.0631,2.13,6.29,1111122 
SCCF RECON,ioos:station:SCCF:11:1,2016-09-04T06:00:00Z,26.4679,-82.0631,2.2,6.84,1111122 
SCCF RECON,ioos:station:SCCF:11:1,2016-09-04T07:00:00Z,26.4679,-82.0631,2.222,6.49,1111122 
SCCF RECON,ioos:station:SCCF:11:1,2016-09-04T08:00:00Z,26.4679,-82.0631,2.2,6.43,1111122 
SCCF RECON,ioos:station:SCCF:11:1,2016-09-04T09:00:00Z,26.4679,-82.0631,2.12,6.43,1111122 
SCCF RECON,ioos:station:SCCF:11:1,2016-09-04T10:00:00Z,26.4679,-82.0631,1.99,6.25,1111122 
SCCF RECON,ioos:station:SCCF:11:1,2016-09-04T11:00:00Z,26.4679,-82.0631,1.88,6.26,1111122 
SCCF RECON,ioos:station:SCCF:11:1,2016-09-04T12:00:00Z,26.4679,-82.0631,1.782,6.02,1111122 
SCCF RECON,ioos:station:SCCF:11:1,2016-09-04T13:00:00Z,26.4679,-82.0631,1.699,6.04,1111122 
SCCF RECON,ioos:station:SCCF:11:1,2016-09-04T14:00:00Z,26.4679,-82.0631,1.649,6.1,1111122 
SCCF RECON,ioos:station:SCCF:11:1,2016-09-04T15:00:00Z,26.4679,-82.0631,1.72,5.9,1111122 
SCCF RECON,ioos:station:SCCF:11:1,2016-09-04T16:00:00Z,26.4679,-82.0631,1.9,6.5,1111122 
SCCF RECON,ioos:station:SCCF:11:1,2016-09-04T17:00:00Z,26.4679,-82.0631,2.059,6.63,1111122 
SCCF RECON,ioos:station:SCCF:11:1,2016-09-04T18:00:00Z,26.4679,-82.0631,2.15,6.98,1111122 
SCCF RECON,ioos:station:SCCF:11:1,2016-09-04T19:00:00Z,26.4679,-82.0631,2.21,6.16,1111122 
SCCF RECON,ioos:station:SCCF:11:1,2016-09-04T20:00:00Z,26.4679,-82.0631,2.191,6.92,1111122 
SCCF RECON,ioos:station:SCCF:11:1,2016-09-04T21:00:00Z,26.4679,-82.0631,2.11,8.45,1111122 
SCCF RECON,ioos:station:SCCF:11:1,2016-09-04T22:00:00Z,26.4679,-82.0631,2.028,8.84,1111122 
SCCF RECON,ioos:station:SCCF:11:1,2016-09-04T23:00:00Z,26.4679,-82.0631,1.93,8.82,1111122 
SCCF RECON,ioos:station:SCCF:11:1,2016-09-05T00:00:00Z,26.4679,-82.0631,1.864,8.86,1111122 
SCCF RECON,ioos:station:SCCF:11:1,2016-09-05T01:00:00Z,26.4679,-82.0631,1.81,8.85,1111122 
SCCF RECON,ioos:station:SCCF:11:1,2016-09-05T02:00:00Z,26.4679,-82.0631,1.77,8.21,1111122 
SCCF RECON,ioos:station:SCCF:11:1,2016-09-05T03:00:00Z,26.4679,-82.0631,1.809,7.83,1111122 
SCCF RECON,ioos:station:SCCF:11:1,2016-09-05T04:00:00Z,26.4679,-82.0631,1.9,6.71,1111122 
SCCF RECON,ioos:station:SCCF:11:1,2016-09-05T05:00:00Z,26.4679,-82.0631,2.01,7.33,1111122 
SCCF RECON,ioos:station:SCCF:11:1,2016-09-05T06:00:00Z,26.4679,-82.0631,2.11,7.18,1111122 
SCCF RECON,ioos:station:SCCF:11:1,2016-09-05T07:00:00Z,26.4679,-82.0631,2.18,6.89,1111122 
SCCF RECON,ioos:station:SCCF:11:1,2016-09-05T08:00:00Z,26.4679,-82.0631,2.19,6.6,1111122 
SCCF RECON,ioos:station:SCCF:11:1,2016-09-05T09:00:00Z,26.4679,-82.0631,2.147,6.26,1111122 
SCCF RECON,ioos:station:SCCF:11:1,2016-09-05T10:00:00Z,26.4679,-82.0631,2.07,6.52,1111122 
SCCF RECON,ioos:station:SCCF:11:1,2016-09-05T11:00:00Z,26.4679,-82.0631,1.97,6.24,1111122 
SCCF RECON,ioos:station:SCCF:11:1,2016-09-05T12:00:00Z,26.4679,-82.0631,1.89,6.09,1111122 
SCCF RECON,ioos:station:SCCF:11:1,2016-09-05T13:00:00Z,26.4679,-82.0631,1.78,5.87,1111122 
SCCF RECON,ioos:station:SCCF:11:1,2016-09-05T14:00:00Z,26.4679,-82.0631,1.72,5.89,1111122 
SCCF RECON,ioos:station:SCCF:11:1,2016-09-05T15:00:00Z,26.4679,-82.0631,1.724,6.26,1111122 
SCCF RECON,ioos:station:SCCF:11:1,2016-09-05T16:00:00Z,26.4679,-82.0631,1.79,7.17,1111122 
SCCF RECON,ioos:station:SCCF:11:1,2016-09-05T17:00:00Z,26.4679,-82.0631,1.92,6.83,1111122 
SCCF RECON,ioos:station:SCCF:11:1,2016-09-05T18:00:00Z,26.4679,-82.0631,2.05,7.53,1111122 
SCCF RECON,ioos:station:SCCF:11:1,2016-09-05T19:00:00Z,26.4679,-82.0631,2.14,7.3,1111122 
SCCF RECON,ioos:station:SCCF:11:1,2016-09-05T20:00:00Z,26.4679,-82.0631,2.177,6.68,1111122 
SCCF RECON,ioos:station:SCCF:11:1,2016-09-05T21:00:00Z,26.4679,-82.0631,2.16,6.89,1111122 
SCCF RECON,ioos:station:SCCF:11:1,2016-09-05T22:00:00Z,26.4679,-82.0631,2.13,6.22,1111122 
SCCF RECON,ioos:station:SCCF:11:1,2016-09-05T23:00:00Z,26.4679,-82.0631,2.07,8.01,1111122 
SCCF RECON,ioos:station:SCCF:11:1,2016-09-06T00:00:00Z,26.4679,-82.0631,1.96,8.26,1111122 
SCCF RECON,ioos:station:SCCF:11:1,2016-09-06T01:00:00Z,26.4679,-82.0631,1.89,7.74,1111122 
SCCF RECON,ioos:station:SCCF:11:1,2016-09-06T02:00:00Z,26.4679,-82.0631,1.83,7.31,1111122 
SCCF RECON,ioos:station:SCCF:11:1,2016-09-06T03:00:00Z,26.4679,-82.0631,1.76,7.19,1111122 
SCCF RECON,ioos:station:SCCF:11:1,2016-09-06T04:00:00Z,26.4679,-82.0631,1.809,6.96,1111122 
SCCF RECON,ioos:station:SCCF:11:1,2016-09-06T05:00:00Z,26.4679,-82.0631,1.958,7.09,1111122 
SCCF RECON,ioos:station:SCCF:11:1,2016-09-06T06:00:00Z,26.4679,-82.0631,2.091,6.84,1111122 
SCCF RECON,ioos:station:SCCF:11:1,2016-09-06T07:00:00Z,26.4679,-82.0631,2.194,6.59,1111122 
SCCF RECON,ioos:station:SCCF:11:1,2016-09-06T08:00:00Z,26.4679,-82.0631,2.261,6.45,1111122 
SCCF RECON,ioos:station:SCCF:11:1,2016-09-06T09:00:00Z,26.4679,-82.0631,2.25,6.2,1111122 
SCCF RECON,ioos:station:SCCF:11:1,2016-09-06T10:00:00Z,26.4679,-82.0631,2.15,6.11,1111122 
SCCF RECON,ioos:station:SCCF:11:1,2016-09-06T11:00:00Z,26.4679,-82.0631,2.049,5.86,1111122 
SCCF RECON,ioos:station:SCCF:11:1,2016-09-06T12:00:00Z,26.4679,-82.0631,1.98,5.49,1111122 
SCCF RECON,ioos:station:SCCF:11:1,2016-09-06T13:00:00Z,26.4679,-82.0631,1.92,5.24,1111122 
SCCF RECON,ioos:station:SCCF:11:1,2016-09-06T14:00:00Z,26.4679,-82.0631,1.828,5.87,1111122 
SCCF RECON,ioos:station:SCCF:11:1,2016-09-06T15:00:00Z,26.4679,-82.0631,1.79,5.86,1111122 
SCCF RECON,ioos:station:SCCF:11:1,2016-09-06T16:00:00Z,26.4679,-82.0631,1.81,6.13,1111122 
SCCF RECON,ioos:station:SCCF:11:1,2016-09-06T17:00:00Z,26.4679,-82.0631,1.9,7.45,1111122 
SCCF RECON,ioos:station:SCCF:11:1,2016-09-06T18:00:00Z,26.4679,-82.0631,2.0,7.69,1111122 
SCCF RECON,ioos:station:SCCF:11:1,2016-09-06T19:00:00Z,26.4679,-82.0631,2.1,6.79,1111122 
SCCF RECON,ioos:station:SCCF:11:1,2016-09-06T20:00:00Z,26.4679,-82.0631,2.17,6.08,1111122 
SCCF RECON,ioos:station:SCCF:11:1,2016-09-06T21:00:00Z,26.4679,-82.0631,2.16,5.56,1111122 
SCCF RECON,ioos:station:SCCF:11:1,2016-09-06T22:00:00Z,26.4679,-82.0631,2.121,7.06,1111122 
SCCF RECON,ioos:station:SCCF:11:1,2016-09-06T23:00:00Z,26.4679,-82.0631,2.064,7.27,1111122 
SCCF RECON,ioos:station:SCCF:11:1,2016-09-07T00:00:00Z,26.4679,-82.0631,2.02,7.56,1111122 
SCCF RECON,ioos:station:SCCF:11:1,2016-09-07T01:00:00Z,26.4679,-82.0631,1.97,6.89,1111122 
SCCF RECON,ioos:station:SCCF:11:1,2016-09-07T02:00:00Z,26.4679,-82.0631,1.914,6.44,1111122 
SCCF RECON,ioos:station:SCCF:11:1,2016-09-07T03:00:00Z,26.4679,-82.0631,1.869,6.67,1111122 
SCCF RECON,ioos:station:SCCF:11:1,2016-09-07T04:00:00Z,26.4679,-82.0631,1.87,6.36,1111122 
SCCF RECON,ioos:station:SCCF:11:1,2016-09-07T05:00:00Z,26.4679,-82.0631,1.94,6.68,1111122 
SCCF RECON,ioos:station:SCCF:11:1,2016-09-07T06:00:00Z,26.4679,-82.0631,2.05,6.67,1111122 
SCCF RECON,ioos:station:SCCF:11:1,2016-09-07T07:00:00Z,26.4679,-82.0631,2.12,6.07,1111122 
SCCF RECON,ioos:station:SCCF:11:1,2016-09-07T08:00:00Z,26.4679,-82.0631,2.2,5.15,1111122 
SCCF RECON,ioos:station:SCCF:11:1,2016-09-07T09:00:00Z,26.4679,-82.0631,2.2,5.47,1111122 
SCCF RECON,ioos:station:SCCF:11:1,2016-09-07T10:00:00Z,26.4679,-82.0631,2.17,5.18,1111122 
SCCF RECON,ioos:station:SCCF:11:1,2016-09-07T11:00:00Z,26.4679,-82.0631,2.12,5.25,1111122 
SCCF RECON,ioos:station:SCCF:11:1,2016-09-07T12:00:00Z,26.4679,-82.0631,2.067,5.2,1111122 
SCCF RECON,ioos:station:SCCF:11:1,2016-09-07T13:00:00Z,26.4679,-82.0631,1.992,5.0,1111122 
SCCF RECON,ioos:station:SCCF:11:1,2016-09-07T14:00:00Z,26.4679,-82.0631,1.89,5.61,1111122 
SCCF RECON,ioos:station:SCCF:11:1,2016-09-07T15:00:00Z,26.4679,-82.0631,1.82,5.66,1111122 
SCCF RECON,ioos:station:SCCF:11:1,2016-09-07T16:00:00Z,26.4679,-82.0631,1.78,5.88,1111122 
SCCF RECON,ioos:station:SCCF:11:1,2016-09-07T17:00:00Z,26.4679,-82.0631,1.787,5.61,1111122 
SCCF RECON,ioos:station:SCCF:11:1,2016-09-07T18:00:00Z,26.4679,-82.0631,1.85,7.73,1111122 
SCCF RECON,ioos:station:SCCF:11:1,2016-09-07T19:00:00Z,26.4679,-82.0631,1.94,7.92,1111122 
SCCF RECON,ioos:station:SCCF:11:1,2016-09-07T20:00:00Z,26.4679,-82.0631,2.05,6.24,1111122 
SCCF RECON,ioos:station:SCCF:11:1,2016-09-07T21:00:00Z,26.4679,-82.0631,2.08,4.92,1111122 
SCCF RECON,ioos:station:SCCF:11:1,2016-09-07T22:00:00Z,26.4679,-82.0631,2.04,4.76,1111122 
SCCF RECON,ioos:station:SCCF:11:1,2016-09-07T23:00:00Z,26.4679,-82.0631,2.01,6.08,1111122 
SCCF RECON,ioos:station:SCCF:11:1,2016-09-08T00:00:00Z,26.4679,-82.0631,1.99,6.6,1111122 
SCCF RECON,ioos:station:SCCF:11:1,2016-09-08T01:00:00Z,26.4679,-82.0631,1.96,6.78,1111122 
SCCF RECON,ioos:station:SCCF:11:1,2016-09-08T02:00:00Z,26.4679,-82.0631,1.92,6.5,1111122 
SCCF RECON,ioos:station:SCCF:11:1,2016-09-08T03:00:00Z,26.4679,-82.0631,1.89,6.54,1111122 
SCCF RECON,ioos:station:SCCF:11:1,2016-09-08T04:00:00Z,26.4679,-82.0631,1.9,6.26,1111122 
SCCF RECON,ioos:station:SCCF:11:1,2016-09-08T05:00:00Z,26.4679,-82.0631,1.95,4.91,1111122 
SCCF RECON,ioos:station:SCCF:11:1,2016-09-08T06:00:00Z,26.4679,-82.0631,1.99,5.74,1111122 
SCCF RECON,ioos:station:SCCF:11:1,2016-09-08T07:00:00Z,26.4679,-82.0631,2.04,6.19,1111122 
SCCF RECON,ioos:station:SCCF:11:1,2016-09-08T08:00:00Z,26.4679,-82.0631,2.113,4.7,1111122 
SCCF RECON,ioos:station:SCCF:11:1,2016-09-08T09:00:00Z,26.4679,-82.0631,2.15,5.02,1111122 
SCCF RECON,ioos:station:SCCF:11:1,2016-09-08T10:00:00Z,26.4679,-82.0631,2.17,3.93,1111122 
SCCF RECON,ioos:station:SCCF:11:1,2016-09-08T11:00:00Z,26.4679,-82.0631,2.13,4.47,1111122 
SCCF RECON,ioos:station:SCCF:11:1,2016-09-08T12:00:00Z,26.4679,-82.0631,2.079,5.41,1111122 
SCCF RECON,ioos:station:SCCF:11:1,2016-09-08T13:00:00Z,26.4679,-82.0631,2.0,5.09,1111122 
SCCF RECON,ioos:station:SCCF:11:1,2016-09-08T14:00:00Z,26.4679,-82.0631,1.89,5.42,1111122 
SCCF RECON,ioos:station:SCCF:11:1,2016-09-08T15:00:00Z,26.4679,-82.0631,1.808,5.82,1111122 
SCCF RECON,ioos:station:SCCF:11:1,2016-09-08T16:00:00Z,26.4679,-82.0631,1.73,6.3,1111122 
SCCF RECON,ioos:station:SCCF:11:1,2016-09-08T17:00:00Z,26.4679,-82.0631,1.692,6.2,1111122 
SCCF RECON,ioos:station:SCCF:11:1,2016-09-08T18:00:00Z,26.4679,-82.0631,1.72,6.38,1111122 
SCCF RECON,ioos:station:SCCF:11:1,2016-09-08T19:00:00Z,26.4679,-82.0631,1.79,7.65,1111122 
SCCF RECON,ioos:station:SCCF:11:1,2016-09-08T20:00:00Z,26.4679,-82.0631,1.915,7.86,1111122 
SCCF RECON,ioos:station:SCCF:11:1,2016-09-08T21:00:00Z,26.4679,-82.0631,1.94,7.34,1111122 
SCCF RECON,ioos:station:SCCF:11:1,2016-09-08T22:00:00Z,26.4679,-82.0631,1.98,6.41,1111122 
SCCF RECON,ioos:station:SCCF:11:1,2016-09-08T23:00:00Z,26.4679,-82.0631,1.97,6.42,1111122 
SCCF RECON,ioos:station:SCCF:11:1,2016-09-09T00:00:00Z,26.4679,-82.0631,2.01,5.44,1111122 
SCCF RECON,ioos:station:SCCF:11:1,2016-09-09T01:00:00Z,26.4679,-82.0631,2.01,4.99,1111122 
SCCF RECON,ioos:station:SCCF:11:1,2016-09-09T02:00:00Z,26.4679,-82.0631,2.04,4.68,1111122 
SCCF RECON,ioos:station:SCCF:11:1,2016-09-09T03:00:00Z,26.4679,-82.0631,2.03,4.74,1111122 
SCCF RECON,ioos:station:SCCF:11:1,2016-09-09T04:00:00Z,26.4679,-82.0631,2.01,4.68,1111122 
SCCF RECON,ioos:station:SCCF:11:1,2016-09-09T05:00:00Z,26.4679,-82.0631,2.019,5.42,1111122 
SCCF RECON,ioos:station:SCCF:11:1,2016-09-09T06:00:00Z,26.4679,-82.0631,1.97,5.6,1111122 
SCCF RECON,ioos:station:SCCF:11:1,2016-09-09T07:00:00Z,26.4679,-82.0631,1.99,6.48,1111122 
SCCF RECON,ioos:station:SCCF:11:1,2016-09-09T08:00:00Z,26.4679,-82.0631,2.053,5.57,1111122 
SCCF RECON,ioos:station:SCCF:11:1,2016-09-09T09:00:00Z,26.4679,-82.0631,2.144,4.87,1111122 
SCCF RECON,ioos:station:SCCF:11:1,2016-09-09T10:00:00Z,26.4679,-82.0631,2.17,4.24,1111122 
SCCF RECON,ioos:station:SCCF:11:1,2016-09-09T11:00:00Z,26.4679,-82.0631,2.16,3.2,1111122 
SCCF RECON,ioos:station:SCCF:11:1,2016-09-09T12:00:00Z,26.4679,-82.0631,2.15,5.24,1111122 
SCCF RECON,ioos:station:SCCF:11:1,2016-09-09T13:00:00Z,26.4679,-82.0631,2.092,5.37,1111122 
SCCF RECON,ioos:station:SCCF:11:1,2016-09-09T14:00:00Z,26.4679,-82.0631,2.04,5.53,1111122 
SCCF RECON,ioos:station:SCCF:11:1,2016-09-09T15:00:00Z,26.4679,-82.0631,1.989,5.51,1111122 
SCCF RECON,ioos:station:SCCF:11:1,2016-09-09T16:00:00Z,26.4679,-82.0631,1.902,6.03,1111122 
SCCF RECON,ioos:station:SCCF:11:1,2016-09-09T17:00:00Z,26.4679,-82.0631,1.81,6.48,1111122 
SCCF RECON,ioos:station:SCCF:11:1,2016-09-09T18:00:00Z,26.4679,-82.0631,1.76,7.14,1111122 
SCCF RECON,ioos:station:SCCF:11:1,2016-09-09T19:00:00Z,26.4679,-82.0631,1.726,7.28,1111122 
SCCF RECON,ioos:station:SCCF:11:1,2016-09-09T20:00:00Z,26.4679,-82.0631,1.742,8.24,1111122 
SCCF RECON,ioos:station:SCCF:11:1,2016-09-09T21:00:00Z,26.4679,-82.0631,1.84,8.27,1111122 
SCCF RECON,ioos:station:SCCF:11:1,2016-09-09T22:00:00Z,26.4679,-82.0631,1.93,7.56,1111122 
SCCF RECON,ioos:station:SCCF:11:1,2016-09-09T23:00:00Z,26.4679,-82.0631,1.98,5.7,1111122 
SCCF RECON,ioos:station:SCCF:11:1,2016-09-10T00:00:00Z,26.4679,-82.0631,2.01,5.63,1111122 
SCCF RECON,ioos:station:SCCF:11:1,2016-09-10T01:00:00Z,26.4679,-82.0631,2.03,5.47,1111122 
SCCF RECON,ioos:station:SCCF:11:1,2016-09-10T02:00:00Z,26.4679,-82.0631,2.04,4.81,1111122 
SCCF RECON,ioos:station:SCCF:11:1,2016-09-10T03:00:00Z,26.4679,-82.0631,2.03,4.87,1111122 
SCCF RECON,ioos:station:SCCF:11:1,2016-09-10T04:00:00Z,26.4679,-82.0631,2.01,4.2,1111122 
SCCF RECON,ioos:station:SCCF:11:1,2016-09-10T05:00:00Z,26.4679,-82.0631,2.0,5.13,1111122 
SCCF RECON,ioos:station:SCCF:11:1,2016-09-10T06:00:00Z,26.4679,-82.0631,1.96,4.36,1111122 
SCCF RECON,ioos:station:SCCF:11:1,2016-09-10T07:00:00Z,26.4679,-82.0631,1.93,4.34,1111122 
SCCF RECON,ioos:station:SCCF:11:1,2016-09-10T08:00:00Z,26.4679,-82.0631,1.944,5.43,1111122 
SCCF RECON,ioos:station:SCCF:11:1,2016-09-10T09:00:00Z,26.4679,-82.0631,2.01,6.2,1111122 
SCCF RECON,ioos:station:SCCF:11:1,2016-09-10T10:00:00Z,26.4679,-82.0631,2.101,6.27,1111122 
SCCF RECON,ioos:station:SCCF:11:1,2016-09-10T11:00:00Z,26.4679,-82.0631,2.16,5.65,1111122 
SCCF RECON,ioos:station:SCCF:11:1,2016-09-10T12:00:00Z,26.4679,-82.0631,2.18,5.22,1111122 
SCCF RECON,ioos:station:SCCF:11:1,2016-09-10T13:00:00Z,26.4679,-82.0631,2.17,5.13,1111122 
SCCF RECON,ioos:station:SCCF:11:1,2016-09-10T14:00:00Z,26.4679,-82.0631,2.161,5.4,1111122 
SCCF RECON,ioos:station:SCCF:11:1,2016-09-10T15:00:00Z,26.4679,-82.0631,2.12,5.77,1111122 
SCCF RECON,ioos:station:SCCF:11:1,2016-09-10T16:00:00Z,26.4679,-82.0631,2.037,6.07,1111122 
SCCF RECON,ioos:station:SCCF:11:1,2016-09-10T17:00:00Z,26.4679,-82.0631,1.96,5.7,1111122 
SCCF RECON,ioos:station:SCCF:11:1,2016-09-10T18:00:00Z,26.4679,-82.0631,1.89,7.63,1111122 
SCCF RECON,ioos:station:SCCF:11:1,2016-09-10T19:00:00Z,26.4679,-82.0631,1.808,7.68,1111122 
SCCF RECON,ioos:station:SCCF:11:1,2016-09-10T20:00:00Z,26.4679,-82.0631,1.74,7.78,1111122 
SCCF RECON,ioos:station:SCCF:11:1,2016-09-10T21:00:00Z,26.4679,-82.0631,1.732,8.12,1111122 
SCCF RECON,ioos:station:SCCF:11:1,2016-09-10T22:00:00Z,26.4679,-82.0631,1.841,7.05,1111122 
SCCF RECON,ioos:station:SCCF:11:1,2016-09-10T23:00:00Z,26.4679,-82.0631,1.95,6.68,1111122 
SCCF RECON,ioos:station:SCCF:11:1,2016-09-11T00:00:00Z,26.4679,-82.0631,2.01,7.1,1111122 
SCCF RECON,ioos:station:SCCF:11:1,2016-09-11T01:00:00Z,26.4679,-82.0631,2.033,7.01,1111122 
SCCF RECON,ioos:station:SCCF:11:1,2016-09-11T02:00:00Z,26.4679,-82.0631,2.09,6.9,1111122 
SCCF RECON,ioos:station:SCCF:11:1,2016-09-11T03:00:00Z,26.4679,-82.0631,2.12,6.08,1111122 
SCCF RECON,ioos:station:SCCF:11:1,2016-09-11T04:00:00Z,26.4679,-82.0631,2.119,5.53,1111122 
SCCF RECON,ioos:station:SCCF:11:1,2016-09-11T05:00:00Z,26.4679,-82.0631,2.08,5.34,1111122 
SCCF RECON,ioos:station:SCCF:11:1,2016-09-11T06:00:00Z,26.4679,-82.0631,2.03,5.94,1111122 
SCCF RECON,ioos:station:SCCF:11:1,2016-09-11T07:00:00Z,26.4679,-82.0631,2.0,5.58,1111122 
SCCF RECON,ioos:station:SCCF:11:1,2016-09-11T08:00:00Z,26.4679,-82.0631,2.01,4.94,1111122 
SCCF RECON,ioos:station:SCCF:11:1,2016-09-11T09:00:00Z,26.4679,-82.0631,2.03,5.73,1111122 
SCCF RECON,ioos:station:SCCF:11:1,2016-09-11T10:00:00Z,26.4679,-82.0631,2.08,6.06,1111122 
SCCF RECON,ioos:station:SCCF:11:1,2016-09-11T11:00:00Z,26.4679,-82.0631,2.17,5.72,1111122 
SCCF RECON,ioos:station:SCCF:11:1,2016-09-11T12:00:00Z,26.4679,-82.0631,2.22,5.8,1111122 
SCCF RECON,ioos:station:SCCF:11:1,2016-09-11T13:00:00Z,26.4679,-82.0631,2.24,5.5,1111122 
SCCF RECON,ioos:station:SCCF:11:1,2016-09-11T14:00:00Z,26.4679,-82.0631,2.233,5.31,1111122 
SCCF RECON,ioos:station:SCCF:11:1,2016-09-11T15:00:00Z,26.4679,-82.0631,2.2,5.59,1111122 
SCCF RECON,ioos:station:SCCF:11:1,2016-09-11T16:00:00Z,26.4679,-82.0631,2.12,6.39,1111122 
SCCF RECON,ioos:station:SCCF:11:1,2016-09-11T17:00:00Z,26.4679,-82.0631,2.04,6.61,1111122 
SCCF RECON,ioos:station:SCCF:11:1,2016-09-11T18:00:00Z,26.4679,-82.0631,1.94,6.91,1111122 
SCCF RECON,ioos:station:SCCF:11:1,2016-09-11T19:00:00Z,26.4679,-82.0631,1.85,7.41,1111122 
SCCF RECON,ioos:station:SCCF:11:1,2016-09-11T20:00:00Z,26.4679,-82.0631,1.76,7.98,1111122 
SCCF RECON,ioos:station:SCCF:11:1,2016-09-11T21:00:00Z,26.4679,-82.0631,1.68,7.41,1111122 